When you browse on this site, cookies collect data to enhance your experience and personalize the content and advertising you see.
Visit our Privacy Policy to learn more. By continuing to use the site, you agree to this use of cookies and data.
  • En España
  • Lista de países
  • Para 7 días
  • Temperatura del agua
  • Mapa Satelital
  • El tiempo en el mapa
  • Informadores
  • user-avatar
    Iniciar sesión

    Tiempo cada hora Krukenychi

    Hoy, 25 Marzo, Lunes

    Tiempo Temperatura Precipitaciones Viento Presión Humedad
    00:00 +7°C° 0 mm 1 mps 738 mmHg 64%
    01:00 +7°C° 0 mm 1 mps 738 mmHg 65%
    02:00 +6°C° 0 mm 0 mps 737 mmHg 68%
    03:00 +5°C° 0.6 mm 0 mps 736 mmHg 73%
    04:00 +6°C° 0.6 mm 1 mps 736 mmHg 77%
    05:00 +6°C° 0.6 mm 1 mps 736 mmHg 82%
    06:00 +6°C° 0.5 mm 1 mps 735 mmHg 82%
    07:00 +6°C° 0.5 mm 1 mps 735 mmHg 83%
    08:00 +6°C° 0 mm 1 mps 735 mmHg 82%
    09:00 +7°C° 0.1 mm 1 mps 735 mmHg 76%
    10:00 +7°C° 0.1 mm 2 mps 734 mmHg 69%
    11:00 +8°C° 0.1 mm 2 mps 734 mmHg 63%
    12:00 +8°C° 0.1 mm 2 mps 734 mmHg 61%
    13:00 +9°C° 0.1 mm 2 mps 734 mmHg 59%
    14:00 +9°C° 0.1 mm 2 mps 734 mmHg 58%
    15:00 +9°C° 0.2 mm 3 mps 733 mmHg 57%
    16:00 +9°C° 0.2 mm 3 mps 733 mmHg 56%
    17:00 +9°C° 0.2 mm 3 mps 733 mmHg 56%
    18:00 +8°C° 0.1 mm 3 mps 733 mmHg 60%
    19:00 +7°C° 0.1 mm 3 mps 733 mmHg 65%
    20:00 +5°C° 0.1 mm 3 mps 734 mmHg 70%
    21:00 +5°C° 0.1 mm 3 mps 734 mmHg 72%
    22:00 +4°C° 0.1 mm 3 mps 734 mmHg 74%
    23:00 +4°C° 0.1 mm 3 mps 735 mmHg 77%

    Mañana, 26 Marzo, Martes

    Tiempo Temperatura Precipitaciones Viento Presión Humedad
    00:00 +4°C° 0 mm 3 mps 735 mmHg 78%
    01:00 +3°C° 0 mm 3 mps 736 mmHg 79%
    02:00 +3°C° 0 mm 4 mps 736 mmHg 80%
    03:00 +1°C° 0 mm 4 mps 737 mmHg 82%
    04:00 +1°C° 0 mm 4 mps 737 mmHg 85%
    05:00 0°C° 0 mm 4 mps 737 mmHg 87%
    06:00 0°C° 0 mm 4 mps 738 mmHg 86%
    07:00 0°C° 0 mm 4 mps 739 mmHg 85%
    08:00 0°C° 0 mm 4 mps 739 mmHg 83%
    09:00 +1°C° 0 mm 5 mps 740 mmHg 79%
    10:00 +2°C° 0 mm 5 mps 740 mmHg 74%
    11:00 +2°C° 0 mm 5 mps 740 mmHg 70%
    12:00 +3°C° 0 mm 5 mps 740 mmHg 68%
    13:00 +3°C° 0 mm 5 mps 740 mmHg 65%
    14:00 +3°C° 0 mm 6 mps 740 mmHg 63%
    15:00 +4°C° 0 mm 6 mps 740 mmHg 61%
    16:00 +4°C° 0 mm 6 mps 739 mmHg 58%
    17:00 +5°C° 0 mm 7 mps 739 mmHg 56%
    18:00 +4°C° 0.1 mm 7 mps 739 mmHg 60%
    19:00 +3°C° 0.1 mm 7 mps 739 mmHg 64%
    20:00 +2°C° 0.1 mm 7 mps 739 mmHg 68%
    21:00 +2°C° 0.3 mm 7 mps 739 mmHg 70%
    22:00 0°C° 0.3 mm 7 mps 740 mmHg 71%
    23:00 -1°C° 0.3 mm 8 mps 740 mmHg 73%

    Pasado mañana, 27 Marzo, Miércoles

    Tiempo Temperatura Precipitaciones Viento Presión Humedad
    00:00 -2°C° 0 mm 7 mps 741 mmHg 72%
    01:00 -3°C° 0 mm 6 mps 741 mmHg 71%
    02:00 -4°C° 0 mm 5 mps 742 mmHg 69%
    03:00 -5°C° 0 mm 5 mps 742 mmHg 70%
    04:00 -4°C° 0 mm 4 mps 743 mmHg 72%
    05:00 -4°C° 0 mm 4 mps 743 mmHg 73%
    06:00 -3°C° 0 mm 4 mps 744 mmHg 71%
    07:00 -4°C° 0 mm 5 mps 744 mmHg 69%
    08:00 -4°C° 0 mm 5 mps 745 mmHg 68%
    09:00 -1°C° 0 mm 5 mps 745 mmHg 63%
    10:00 0°C° 0 mm 5 mps 745 mmHg 57%
    11:00 +3°C° 0 mm 4 mps 746 mmHg 52%
    12:00 +2°C° 0 mm 5 mps 746 mmHg 48%
    13:00 +3°C° 0 mm 5 mps 745 mmHg 44%
    14:00 +5°C° 0 mm 5 mps 745 mmHg 41%
    15:00 +5°C° 0 mm 5 mps 745 mmHg 41%
    16:00 +5°C° 0 mm 4 mps 745 mmHg 41%
    17:00 +5°C° 0 mm 4 mps 745 mmHg 42%
    18:00 +4°C° 0 mm 3 mps 745 mmHg 47%
    19:00 +4°C° 0 mm 2 mps 746 mmHg 53%
    20:00 +4°C° 0 mm 1 mps 746 mmHg 58%
    21:00 +4°C° 0 mm 1 mps 746 mmHg 62%
    22:00 +4°C° 0 mm 1 mps 747 mmHg 66%
    23:00 +4°C° 0 mm 1 mps 747 mmHg 71%

    28 Marzo, Jueves

    Tiempo Temperatura Precipitaciones Viento Presión Humedad
    00:00 +4°C° 0 mm 1 mps 747 mmHg 74%
    01:00 +4°C° 0 mm 1 mps 747 mmHg 78%
    02:00 +2°C° 0 mm 0 mps 747 mmHg 81%
    03:00 +2°C° 0 mm 0 mps 747 mmHg 83%
    04:00 +2°C° 0 mm 0 mps 747 mmHg 85%
    05:00 +2°C° 0 mm 0 mps 747 mmHg 87%
    06:00 +2°C° 0 mm 0 mps 748 mmHg 85%
    07:00 +3°C° 0 mm 0 mps 748 mmHg 84%
    08:00 +3°C° 0 mm 0 mps 748 mmHg 82%
    09:00 +4°C° 0 mm 0 mps 748 mmHg 79%
    10:00 +5°C° 0 mm 0 mps 749 mmHg 76%
    11:00 +6°C° 0 mm 0 mps 749 mmHg 73%
    12:00 +8°C° 0.1 mm 1 mps 749 mmHg 70%
    13:00 +8°C° 0.1 mm 1 mps 749 mmHg 68%
    14:00 +9°C° 0.1 mm 1 mps 749 mmHg 65%
    15:00 +9°C° 0 mm 1 mps 749 mmHg 64%
    16:00 +8°C° 0 mm 2 mps 749 mmHg 62%
    17:00 +8°C° 0 mm 2 mps 749 mmHg 60%
    18:00 +7°C° 0 mm 2 mps 749 mmHg 63%
    19:00 +6°C° 0 mm 2 mps 749 mmHg 67%
    20:00 +6°C° 0 mm 2 mps 750 mmHg 70%
    21:00 +5°C° 0 mm 2 mps 750 mmHg 71%
    22:00 +4°C° 0 mm 2 mps 750 mmHg 73%
    23:00 +4°C° 0 mm 1 mps 750 mmHg 74%

    29 Marzo, Viernes

    Tiempo Temperatura Precipitaciones Viento Presión Humedad
    00:00 +4°C° 0 mm 1 mps 751 mmHg 75%
    01:00 +3°C° 0 mm 1 mps 751 mmHg 76%
    02:00 +3°C° 0 mm 1 mps 751 mmHg 76%
    03:00 +3°C° 0 mm 1 mps 751 mmHg 77%
    04:00 +3°C° 0 mm 1 mps 751 mmHg 78%
    05:00 +2°C° 0 mm 1 mps 751 mmHg 79%
    06:00 +3°C° 0 mm 1 mps 751 mmHg 77%
    07:00 +4°C° 0 mm 1 mps 751 mmHg 75%
    08:00 +5°C° 0 mm 1 mps 751 mmHg 73%
    09:00 +6°C° 0 mm 2 mps 751 mmHg 69%
    10:00 +7°C° 0 mm 2 mps 751 mmHg 65%
    11:00 +9°C° 0 mm 3 mps 751 mmHg 61%
    12:00 +10°C° 0 mm 3 mps 751 mmHg 60%
    13:00 +10°C° 0 mm 4 mps 750 mmHg 59%
    14:00 +11°C° 0 mm 4 mps 750 mmHg 59%
    15:00 +11°C° 0 mm 4 mps 749 mmHg 59%
    16:00 +11°C° 0 mm 4 mps 749 mmHg 59%
    17:00 +11°C° 0 mm 4 mps 749 mmHg 59%
    18:00 +10°C° 0 mm 3 mps 749 mmHg 65%
    19:00 +8°C° 0 mm 3 mps 749 mmHg 70%
    20:00 +7°C° 0 mm 2 mps 749 mmHg 76%
    21:00 +7°C° 0 mm 2 mps 749 mmHg 77%
    22:00 +6°C° 0 mm 2 mps 749 mmHg 79%
    23:00 +5°C° 0 mm 3 mps 749 mmHg 81%

    30 Marzo, Sábado

    Tiempo Temperatura Precipitaciones Viento Presión Humedad
    00:00 +5°C° 0 mm 3 mps 748 mmHg 81%
    01:00 +5°C° 0 mm 3 mps 748 mmHg 82%
    02:00 +5°C° 0 mm 3 mps 748 mmHg 83%
    03:00 +4°C° 0 mm 3 mps 748 mmHg 86%
    04:00 +4°C° 0 mm 3 mps 748 mmHg 88%
    05:00 +5°C° 0 mm 2 mps 748 mmHg 91%
    06:00 +5°C° 0 mm 3 mps 748 mmHg 89%
    07:00 +5°C° 0 mm 3 mps 748 mmHg 88%
    08:00 +7°C° 0 mm 3 mps 748 mmHg 87%
    09:00 +9°C° 0 mm 3 mps 747 mmHg 81%
    10:00 +10°C° 0 mm 3 mps 747 mmHg 75%
    11:00 +12°C° 0 mm 3 mps 747 mmHg 69%
    12:00 +13°C° 0 mm 3 mps 747 mmHg 66%
    13:00 +14°C° 0 mm 4 mps 746 mmHg 62%
    14:00 +15°C° 0 mm 4 mps 746 mmHg 58%
    15:00 +14°C° 0 mm 4 mps 745 mmHg 60%
    16:00 +14°C° 0 mm 3 mps 745 mmHg 61%
    17:00 +14°C° 0 mm 3 mps 744 mmHg 63%
    18:00 +14°C° 0 mm 2 mps 744 mmHg 68%
    19:00 +12°C° 0 mm 2 mps 744 mmHg 74%
    20:00 +11°C° 0 mm 1 mps 744 mmHg 80%
    21:00 +10°C° 0 mm 1 mps 743 mmHg 82%
    22:00 +9°C° 0 mm 2 mps 743 mmHg 84%
    23:00 +8°C° 0 mm 2 mps 743 mmHg 86%
    Mostrar más